www.pogodaiklimat.ru

Погода и климат >> Архив погоды >> Россия >> Нижегородская область >> Нижний Новгород


АРХИВ ПОГОДЫ в Нижнем Новгороде

Время (UTC), дата Ветер
(напр.,м/с)
 
Видим.   Явления Облачность Т
(С)
Тd
(С)
f
(%)
Тe
(С)
Тes
(С)
Комфортность P
(гПа)
Po
(гПа)
Тmin
(С)
Tmax
(С)
R
(мм)
R24
(мм)
S
(см)
12 14.04 В 3-8
{10}
10 км 9/3 1000 м
[Sc Ac trans]
+6.6 -10.0 29 +4 +6 прохладно 1024.4 1004.9
15 14.04 В 4-8
{10}
10 км 9/3 1000 м
[Sc Ac trans]
+5.8 -11.1 28 +3 +3 прохладно 1024.3 1004.8 +7.0
18 14.04 В 3-8
{8}
10 км 4/0
[Ac trans]
+3.9 -9.9 36 +1 +1 прохладно 1025.5 1005.8
21 14.04 В 3-6
{8}
10 км 3/0
[Ci fib]
+1.2 -9.5 45 -2 -2 прохладно 1026.5 1006.7
00 15.04 В 2-4
{6}
10 км ясно -0.6 -9.9 49 -4 -4 холодно 1027.4 1007.4
03 15.04 СВ 3-5
{6}
10 км ясно -1.1 -10.2 50 -5 -5 холодно 1028.0 1007.9 -1.1
06 15.04 СВ 2-5
{6}
10 км ясно +3.4 -10.3 36 +1 +8 по сезону 1028.6 1008.8
09 15.04 С 2-5
{6}
10 км 3/0
[Cs]
+6.6 -13.1 23 +5 +16 опасность
простуды
1027.5 1008.1
12 15.04 СЗ 2-5
{5}
10 км 4/0
[Cs]
+9.5 -11.7 21 +9 +15 по сезону 1025.7 1006.5
15 15.04 СЗ 2-5
{6}
10 км 4/0
[As op Ci sp]
+8.9 -10.7 24 +8 +9 по сезону 1024.8 1005.5 +10.0
18 15.04 штиль 0
{5}
10 км 8/0
[Ac As]
+5.3 -7.8 38 +5 +5 по сезону 1024.9 1005.4
21 15.04 СЗ 1-2
{4}
10 км 9/0
[Ac trans]
+5.8 -7.9 37 +6 +6 по сезону 1024.8 1005.3
00 16.04 З 1-2
{2}
10 км 4/0
[Ci sp]
+1.8 -7.1 52 +1 +1 по сезону 1024.3 1004.5
03 16.04 СЗ 1-2
{3}
10 км ясно +0.7 -4.6 68 -1 -0 прохладно 1024.0 1004.1 +0.5
06 16.04 СЗ 2-6
{6}
10 км 4/0
[Cc]
+5.6 -3.5 52 +4 +10 по сезону 1023.6 1004.1
09 16.04 С 3-10
{10}
10 км 4/4 1000 м
[Sc]
+8.3 -3.6 43 +6 +12 по сезону 1023.4 1004.1
12 16.04 С 3-8
{10}
10 км 8/8 1000 м
[Sc]
+7.7 -5.0 40 +6 +7 по сезону 1024.1 1004.7
15 16.04 С 3-8
{10}
10 км 10/10 1000 м
[Sc]
+5.3 -4.3 50 +3 +3 прохладно 1025.8 1006.3 +9.4
18 16.04 С 2-6
{9}
10 км 8/8 1000 м
[Sc Ci fib]
+4.9 -4.2 52 +3 +3 по сезону 1027.9 1008.2
21 16.04 СВ 2-6
{7}
10 км ясно +2.7 -5.8 53 0 0 прохладно 1030.1 1010.3
00 17.04 СВ 2-5
{7}
10 км ясно +0.3 -8.1 53 -3 -3 прохладно 1031.8 1011.8
03 17.04 В 3-7
{8}
10 км ясно -1.9 -10.8 51 -6 -6 очень
холодно
1034.1 1013.8 -2.0
06 17.04 В 2-5
{8}
10 км 10/0
[Ci]
0.0 -13.8 35 -3 +3 холодно 1035.6 1015.4
09 17.04 СВ 1-4
{6}
10 км 8/0
[Ci fib]
+3.0 -15.1 25 +3 +14 опасность
простуды
1035.3 1015.4
12 17.04 С 2-4
{6}
10 км 10/0
[Ci fib]
+5.4 -15.6 20 +4 +10 прохладно 1034.0 1014.2
15 17.04 С 1-3
{8}
10 км 3/0
[Ci fib]
+5.7 -16.4 19 +6 +7 по сезону 1032.3 1012.6 +6.2
18 17.04 штиль 0
{3}
10 км ясно +1.3 -14.0 31 +1 +1 прохладно 1032.6 1012.6
21 17.04 штиль 0
{1}
10 км ясно -0.2 -11.4 43 -1 -1 прохладно 1032.2 1012.1
00 18.04 ЮВ 1-1
{2}
10 км 8/0
[Ci fib]
-0.2 -14.5 33 -1 -1 прохладно 1031.3 1011.2
03 18.04 штиль 0
{2}
10 км 8/0
[Ci fib]
-0.6 -14.5 34 -1 0 прохладно 1031.1 1011.0 -1.2
06 18.04 ЮЗ 1-3
{4}
10 км 10/0
[Ci fib]
+3.4 -12.1 31 +3 +9 по сезону 1030.1 1010.3
09 18.04 ЮВ 2-5
{5}
10 км 10/0
[Cs]
+7.1 -14.4 20 +6 +15 опасность
простуды
1029.3 1009.8
12 18.04 Ю 1-4
{5}
10 км 10/0
[Ci]
+8.8 -15.1 17 +9 +16 по сезону 1028.5 1009.1
15 18.04 В 1-3
{5}
10 км 4/0
[Ci sp]
+7.9 -13.3 21 +8 +9 по сезону 1028.1 1008.6 +9.2
18 18.04 штиль 0
{3}
10 км 3/0
[Ci fib]
+3.2 -9.6 38 +3 +3 по сезону 1029.3 1009.3
21 18.04 Ю 1-2
{2}
10 км ясно +2.1 -12.3 34 +1 +1 по сезону 1029.7 1009.8
00 19.04 ЮЗ 1-1
{2}
10 км ясно +1.9 -12.7 33 +1 +1 по сезону 1030.1 1010.2
03 19.04 З 1-2
{2}
10 км ясно +0.5 -10.2 45 -1 0 прохладно 1030.3 1010.3 +0.5
06 19.04 СЗ 1-3
{4}
10 км ясно +5.5 -7.5 39 +5 +13 по сезону 1030.2 1010.6
09 19.04 СЗ 3-6
{6}
10 км 4/4 1000 м
[Cu hum]
+9.7 -9.8 24 +8 +14 по сезону 1029.2 1009.9
12 19.04 СЗ 2-5
{7}
10 км 3/3 1000 м
[Cu hum]
+10.3 -7.8 27 +10 +15 по сезону 1027.8 1008.5
15 19.04 СЗ 2-5
{8}
10 км ясно +9.9 -7.8 28 +9 +10 по сезону 1026.3 1007.1 +11.0
18 19.04 штиль 0
{5}
10 км 3/0
[Ac trans]
+4.9 -6.2 44 +5 +5 по сезону 1026.7 1007.1
21 19.04 штиль 0
{1}
10 км ясно +3.4 -5.6 52 +3 +3 по сезону 1026.4 1006.7
00 20.04 штиль 0 10 км 1/0
[Ac trans]
+1.6 -5.0 61 +1 +1 по сезону 1025.7 1005.9
03 20.04 штиль 0 10 км 8/0
[Ac trans Ci]
+1.9 -4.2 64 +1 +2 прохладно 1025.5 1005.7 -0.2
06 20.04 З 2-3
{3}
10 км 3/0
[Ci fib]
+8.7 -5.7 36 +8 +14 по сезону 1025.3 1006.0
09 20.04 СЗ 2-4
{5}
10 км 3/0
[Ci fib]
+11.4 -6.7 27 +11 +22 опасность
простуды
1024.9 1005.8
12 20.04 С 2-4
{5}
10 км ясно +12.9 -6.4 25 +13 +20 тепло 1024.4 1005.5
15 20.04 Ю 1-2
{5}
10 км ясно +12.8 -7.1 24 +13 +14 тепло 1024.4 1005.4 +13.8
18 20.04 штиль 0
{2}
10 км ясно +7.2 -7.1 35 +7 +7 по сезону 1025.7 1006.3
21 20.04 ЮВ 1-2
{3}
10 км ясно +7.5 -6.0 38 +7 +7 по сезону 1026.3 1006.9
00 21.04 штиль 0
{2}
10 км ясно +5.4 -6.7 41 +5 +5 по сезону 1026.6 1007.1
03 21.04 З 1-1
{2}
10 км 3/0
[Ci fib]
+5.8 -6.0 42 +5 +6 по сезону 1027.3 1007.8 +3.5
06 21.04 З 1-2
{3}
10 км 3/0
[Ci fib]
+11.0 -4.1 34 +11 +19 тепло 1027.6 1008.4
09 21.04 СЗ 2-6
{6}
10 км 4/3 600 м
[Cu hum Ci sp]
+14.6 -4.4 27 +15 +23 тепло 1027.3 1008.3

 

Местоположение метеостанции Нижний Новгород (Нижегородская область, Россия): широта 56.27 долгота 44.00 высота над уровнем моря 157 м.

В архиве по умолчанию представлена погода в Нижнем Новгороде за последнюю неделю. Архивные данные за месяц целиком и за предыдущие месяцы, начиная с января 2011 года, Вы можете получить, выбрав интересующий диапазон дат из раскрывающегося списка и нажав кнопку "Ввод!".


*Определитесь, кто Вы:
робот инопланетянин человек

Внимание! Время в таблицах - всемирное. Для получения местного времени необходимо прибавить поправку, которая равна 3 ч.

Смотрите также архив погоды в соседних городах и на ближайших метеорологических станциях:

Погода в Нижнем Новгороде аэропорт (Нижегородская область, Россия) (15 км)
Погода в Дальнем Константиново (Нижегородская область, Россия) (53 км)
Погода в Балахне (Нижегородская область, Россия) (54 км)
Погода в Волжской ГМО (Нижегородская область, Россия) (57 км)
Погода в Семенове (Нижегородская область, Россия) (60 км)
Погода в Павлово (Нижегородская область, Россия) (70 км)
Погода в Лысково (Нижегородская область, Россия) (70 км)
Погода в Арзамасе (Нижегородская область, Россия) (101 км)
Погода в Воскресенском (Нижегородская область, Россия) (106 км)
Погода в Вязниках (Владимирская область, Россия) (113 км)

Пояснения к столбцам:

Ветер - указаны скорость ветра в м/с - средняя за 10 мин, порывы в срок и между сроками (в фигурных скобках) и направление, откуда дует ветер: С - северный, СВ - северо-восточный, В - восточный, ЮВ - юго-восточный, Ю - южный, ЮЗ - юго-западный, З - западный, СЗ - северо-западный.
Видимость - горизонтальная дальность видимости в метрах или километрах. При видимости от 1 до 10 км при отсутствии осадков обычно наблюдается дымка, при ухудшении видимости до 1 км и менее - туман. В сухую погоду видимость может ухудшаться дымом, пылью или мглою.
Явления - указаны атмосферные явления, наблюдавшиеся в срок или в последний час перед сроком; фигурными скобками обозначены явления, наблюдавшиеся между сроками (за 1-3 часа до срока); квадратными скобками обозначены град или гололедные отложения с указанием их диаметра в мм.
Облачность - указаны через наклонную черту общая и нижняя облачность в баллах и высота нижней границы облаков в метрах; квадратными скобками обозначены формы облаков: Ci - перистые, Cs - перисто-слоистые, Cc - перисто-кучевые, Ac - высококучевые, As - высокослоистые, Sc - слоисто-кучевые, Ns - слоисто-дождевые, Cu - кучевые, Cb - кучево-дождевые. Подробнее классификацию облаков см. в Атласе облаков (PDF).
T - Температура воздуха - температура, измеренная на высоте 2 м над землей.
Td - Температура точки росы - температура, при понижении до которой содержащийся в воздухе водяной пар достигнет насыщения.
f - Относительная влажность воздуха - влажноcть воздуха, измеренная на высоте 2 м над землей.
Te - Эффективная температура - температура, которую ощущает одетый по сезону человек в тени. Характеристика душности погоды. При расчете учитывается влияние влажности воздуха и скорости ветра на теплоощущения человека.
Tes - Эффективная температура на солнце - температура, которую ощущает человек, с поправкой на солнечный нагрев. Характеристика знойности погоды. Зависит от высоты солнца над горизонтом, облачности и скорости ветра. Ночью, в пасмурную погоду, а также при ветре 12 м/с и более поправка равна нулю.
P - Атмосферное давление - приведенное к уровню моря атмосферное давление.
Po - Атмосферное давление - измеренное на уровне метеостанции атмосферное давление.
Tmin - Минимальная температура - минимум температуры воздуха на высоте 2 м над землей.
Tmax - Максимальная температура - максимум температуры воздуха на высоте 2 м над землей.
R - Количество осадков - Количество выпавших осадков за период времени, мм. При наведении курсора мыши на число - период времени, за который выпало указанное количество осадков.
R24 - Количество осадков - Количество выпавших осадков за 24 часа, мм.
S - Снежный покров - Высота снежного покрова, см. При наведении курсора мыши на число - состояние снежного покрова и степень покрытия местности в баллах.